Regional Weather Roundup
Issued by NWS Jackson, KY

Home | Current Version | Previous Version | Text Only | Print | Product List | Glossary Off
Versions: 1 2 3 4 5 6 7 8 9 10 11 12 13 14 15 16 17 18 19 20 21 22 23 24 25 26 27 28 29 30 31 32 33 34 35 36 37 38 39 40 41 42 43 44 45 46 47 48 49 50

000
ASUS43 KJKL 290710
RWRJKL

EAST KENTUCKY HOURLY WEATHER ROUNDUP
NATIONAL WEATHER SERVICE JACKSON KY
200 AM EST THU JAN 29 2015

NOTE: "FAIR" INDICATES FEW OR NO CLOUDS BELOW 12,000 FEET WITH
NO SIGNIFICANT WEATHER AND/OR OBSTRUCTIONS TO VISIBILITY.

* THESE REPORTS ARE NOT UNDER NWS QUALITY CONTROL AND MAY NOT
  REPORT WEATHER SUCH AS PRECIPITATION AND FOG.

KYZ079-080-083-085-087-088-110-112-115-119-120-290800
...EASTERN KENTUCKY...

CITY           SKY/WX    TMP DP  RH WIND       PRES   REMARKS
JACKSON        MOCLDY    32  19  58 S5        30.13F WCI  27
LONDON         MOCLDY    32  18  56 S3        30.14F
SOMERSET*        N/A     32  18  55 CALM      30.16F
MONTICELLO*    MOCLDY    37  17  44 S6        30.16F WCI  32
MIDDLESBORO*   PTCLDY    32  22  68 S3        30.22S
HARLAN APT*    MOSUNNY   34  19  55 E7        30.18F WCI  28
BLACK MTN*       N/A     30  14  51 S13         N/A  WCI  20
PIKEVILLE APT* CLEAR     32  19  59 SE7       30.14F WCI  26
BIG SANDY*     CLOUDY    31  21  66 CALM      30.15F
MOREHEAD APT*  CLOUDY    32  19  59 SE6       30.16R WCI  26
$$

KYZ035-036-041-042-044-050-067-078-099-290800
...CENTRAL KENTUCKY...

CITY           SKY/WX    TMP DP  RH WIND       PRES   REMARKS
MT STERLING*   MOCLDY    32  23  69 S5        30.13F WCI  27
FLEMING/MASON* MOCLDY    30  21  69 SE9       30.13F WCI  22
DANVILLE*      PTCLDY    34  19  55 S8        30.11F WCI  27
RICHMOND*      PTCLDY    36  18  48 S8        30.11F WCI  29
LEXINGTON      PTCLDY    33  20  58 SE13      30.10F WCI  24
FRANKFORT      MOCLDY    33  20  58 SE8       30.08F WCI  26
$$

KYZ091>093-OHZ055-061-077-WVZ005-015-034-035-042-290800
...SOUTHERN OHIO/WEST VIRGINIA...

CITY           SKY/WX    TMP DP  RH WIND       PRES   REMARKS
COVINGTON      CLOUDY    32  20  61 S15       30.06F WCI  22
COLUMBUS       CLOUDY    26  15  63 SE9       30.14F WCI  17
DAYTON         CLOUDY    31  21  66 SE18      30.04F WCI  19
WILMINGTON     MOCLDY    28  19  69 S12       30.08F WCI  18
HUNTINGTON     CLOUDY    25  19  78 E6        30.16F WCI  18
CHARLESTON     PTCLDY    22  18  85 CALM      30.18F
PINEVILLE*     CLEAR     24  23  98 MISG      30.24F
BECKLEY        PTCLDY    26  11  52 SE10      30.16F WCI  16
BLUEFIELD      PTCLDY    31  14  49 VRB3      30.17F
$$

VAZ002-007-008-TNZ017-027-036-066-071-290800
...SOUTHWEST VIRGINIA/EAST TENNESSEE...

CITY           SKY/WX    TMP DP  RH WIND       PRES   REMARKS
WISE*          PTCLDY    34  12  40 S8        30.15F WCI  27
JONESVILLE*    MOSUNNY   23  23 100 CALM      30.24S
ABINGDON*      PTCLDY    31  21  67 E7        30.20F WCI  24
BRISTOL        PTCLDY    24  20  84 CALM      30.22F
KNOXVILLE      CLOUDY    29  23  78 SE3       30.23F
OAK RIDGE      PTCLDY    29  23  78 CALM      30.25F
CROSSVILLE     MOCLDY    38  12  34 S7        30.17F WCI  33
NASHVILLE      MOCLDY    44  28  53 S10       30.12F
$$

...KEY TO REMARKS...
VSB - VISIBILITY IN MILES
WCI - WIND CHILL INDEX
HX  - HEAT INDEX

$$


USA.gov is the U.S. government's official web portal to all federal, state and local government web resources and services.